Hourly Data Report for November 23, 2019

SHEARWATER RCS
NOVA SCOTIA
Current Station Operator: ECCC - MSC

44°37'47.000" N
63°30'48.000" W
24.00 m
8205092
71264
AAW

Download Data

Hourly Data (November 2019)
Hourly Data Report for November 23, 2019
TIME
LST
Temp Definition
°C
Dew Point Definition
°C
Rel Hum Definition
%
Precip. Amount Definition
mm

Wind Dir Definition
10's deg

Wind Spd Definition
km/h
Visibility Definition
km
Stn Press Definition
kPa
Hmdx Definition


Wind Chill Definition


Weather Definition


00:00 8.3 7.5 95 3.8 28 12   98.70     LegendNANA
01:00 4.7 3.6 93 1.4 29 23   98.77     LegendNANA
02:00 3.9 2.3 89 0.0 29 19   98.88     LegendNANA
03:00 3.5 1.3 86 0.0 28 19   98.98     LegendNANA
04:00 3.0 1.0 86 0.0 28 17   99.07     LegendNANA
05:00 2.6 0.2 84 0.0 27 20   99.23     LegendNANA
06:00 1.6 -0.4 87 0.0 28 22   99.33     LegendNANA
07:00 1.5 -1.3 81 0.0 27 19   99.44     LegendNANA
08:00 1.1 -3.1 73 0.0 28 22   99.53     LegendNANA
09:00 0.9 -3.4 73 0.0 28 20   99.60     LegendNANA
10:00 0.9 -4.2 69 0.0 28 24   99.67     LegendNANA
11:00 0.9 -4.7 66 0.0 28 26   99.70     LegendNANA
12:00 1.0 -4.6 66 0.0 29 21   99.70     LegendNANA
13:00 2.0 -4.7 61 0.0 29 27   99.72     LegendNANA
14:00 2.4 -4.6 60 0.0 28 28   99.76     LegendNANA
15:00 2.7 -5.3 55 0.0 28 27   99.79     LegendNANA
16:00 2.4 -5.3 57 0.0 29 19   99.91     LegendNANA
17:00 1.7 -5.5 59 0.0 26 17   100.08     LegendNANA
18:00 1.2 -5.6 60 0.0 27 14   100.19     LegendNANA
19:00 1.1 -5.8 60 0.0 27 14   100.28     LegendNANA
20:00 1.1 -5.6 61 0.0 28 14   100.31     LegendNANA
21:00 1.1 -5.4 62 0.0 28 12   100.38     LegendNANA
22:00 0.9 -5.0 64 0.0 27 11   100.38     LegendNANA
23:00 1.2 -4.4 66 0.0 29 14   100.39     LegendNANA

Notes on Data Quality.

Legend

  • E = Estimated
  • M = Missing
  • NA = Not Available*
  • [empty] = Indicates an unobserved value
Date modified: